Regional Weather Roundup
Issued by NWS

Home | Current Version | Previous Version | Graphics & Text | Print | Product List | Glossary On
Versions: 1 2 3 4 5 6 7 8 9 10 11 12 13 14 15 16 17 18 19 20 21 22 23 24 25 26 27 28 29 30 31 32 33 34 35 36 37 38 39 40 41 42 43 44 45 46 47 48 49 50
000
ASUS45 KCYS 282010
RWRWY

WYOMING REGIONAL WEATHER ROUNDUP
NATIONAL WEATHER SERVICE CHEYENNE WY
200 PM MDT TUE MAR 28 2017

NOTE:  "FAIR" INDICATES FEW OR NO CLOUDS BELOW 12,000 FEET
WITH NO SIGNIFICANT WEATHER AND/OR OBSTRUCTIONS TO VISIBILITY.

WYZ001-282100-
YELLOWSTONE NATIONAL PARK

CITY           SKY/WX    TMP DP  RH WIND       PRES   REMARKS
LK YELLOWSTONE   N/A     34  21  59 VRB5      30.13S WCI  30
W YELLOWSTONE  NOT AVBL

$$
WYZ002>013-054>058-071-098>099-282100-
NORTHERN WYOMING

CITY           SKY/WX    TMP DP  RH WIND       PRES   REMARKS
JACKSON        SUNNY     43  19  39 NE5       30.11S
CODY           FAIR      47  30  51 N13       30.11F
GREYBULL       FAIR      53  30  41 NW20G28   30.06F
WORLAND        CLOUDY    48  35  60 N7        30.08F
SHERIDAN       CLOUDY    43  38  82 NW12      30.12F
BUFFALO        FAIR      44  35  70 N24G38    30.08F
GILLETTE       CLOUDY    44  37  76 NW23      30.06S
HULETT         CLOUDY    52  37  58 N13       30.03S
NEWCASTLE      LGT RAIN  46  37  71 N7        30.03S

$$
WYZ014>020-022>026-101>103-282100-
CENTRAL WYOMING

CITY           SKY/WX    TMP DP  RH WIND       PRES   REMARKS
BIG PINEY      FAIR      47  20  34 N15G23    30.06S
PINEDALE       FAIR      43  23  45 NW17      30.06S
DUBOIS         FAIR      43  30  61 SE12      30.05S
LANDER         CLOUDY    40  36  86 VRB3      30.07F
RIVERTON       FAIR      47  32  56 N13       30.07F
CASPER         CLOUDY    40  35  83 N22       30.05R WCI  30
DOUGLAS        LGT RAIN  41  38  89 N16       30.03S

$$
WYZ021-027>030-104>119-282100-
SOUTHERN WYOMING

CITY           SKY/WX    TMP DP  RH WIND       PRES   REMARKS
EVANSTON       FAIR      42  27  55 NW18G30   30.09S
KEMMERER         N/A     41  28  60 NW13      30.08S
FORT BRIDGER   CLOUDY    44  31  60 NW5       30.10F
ROCK SPRINGS   FLURRIES  36  32  85 NW9       30.07S WCI  29
DIXON            N/A     46  33  61 N23G29    29.97S
RAWLINS        CLOUDY    41  31  67 N21G29    30.01R
SARATOGA       DRIZZLE   37  37 100 N16       29.98S WCI  28
LARAMIE        LGT RAIN  37  35  92 N16G24    29.92S WCI  28
CHEYENNE       CLOUDY    41  38  89 N16G26    29.90S
TORRINGTON     CLOUDY    45  44  97 E16       29.93S FOG
PINE BLUFFS    CLOUDY    43  41  93 NE8       29.91S

$$



USA.gov is the U.S. government's official web portal to all federal, state and local government web resources and services.